Location: Meanaryar
(48.4161°N, 4.7315°W)
Time: 01:43:20
(UTC+00:00)

Resurs 01 Rocket - Pass Details

Date: 18 September 2020
Orbit: 633 x 645 km, 98.0° (Epoch: 31 October)

Event Time Altitude Azimuth Distance (km) Brightness Sun altitude
Exits shadow 19:19:14 12° 86° (E) 1,924 3.5 -9.8°
Maximum altitude 19:21:10 15° 58° (ENE) 1,733 3.5 -10.1°
Drops below altitude 10° 19:23:42 10° 24° (NNE) 2,053 4.1 -10.5°
Sets 19:26:44 0° 1° (N) 2,967 5.2 -11.0°
